PROBA-2 (36037 NORAD) Tracking and Keplerian Element Data

This shows tracking and keplerian element data for the satellite.

Feedback or suggestion? Click here.




ElementValue
Catalog36037
NamePROBA-2
Epoch Orbit47859
Epoch Day315.96506011
Epoch Year2018
RAAN145.9089
Inclination98.2365
Eccentricity0.0013039
Argument of Perigee192.387
Mean Anonmoly167.7008
Mean Motion14.53053643
Decay Rate1.5E-07
L11 36037U 09059B 18315.96506011 .00000015 00000-0 14413-4 0 9991
L22 36037 98.2365 145.9089 0013039 192.3870 167.7008 14.53053643478592

Live tracking and technical data element details for PROBA-2 (NORAD 36037). PROBA-2 can be tracked NOW for your location showing map with azimuth and elevation plus other details from your city location.

Track the satellite on the map from your city or location and see movement details for azimuth, elevation, latitude, longitude, range, height, and movement on the map or in text.







IsCatalogInMostPopularTable: catalog: 36037, numindb: 51
Update: records affected: 1



GetName: 36037 PROBA-2

Hit Count: updated at: Mon, 12 Nov 2018 21:43:20 GMT